NOAA 16 DEB, 42383

Orbit data source: Space-Track

NOAA 16 DEB, 42383 is space debris in SSO originally from a launch on Thu, 21 Sep 2000 UTC launched from the Air Force Western Test Range (AFWTR). Debris objects in space refer to the collection of defunct objects orbiting the Earth. Examples of debris include non-operational satellites, rocket bodies, and fragments generated from explosions, collisions, or faulty payload assembly.

Loading next visibility...
Identifier
42383, 2000-055SB
Orbit
SSO
Country
Flag of USUS
Related business
Manufacturer
Unknown
Mission
Spacecraft
Bus & Motor
Unknown
Mass
Unknown
Launch date (UTC)
2000-09-21 (25 years ago)
Launch vehicle
Unknown
Launch site
Air Force Western Test Range (AFWTR)
Object type
Payload
Rocket body
Debris
Shape & HBR
Unknown shape, 0.1 m
Radar Cross Section
Small (<0.1 m²)

Expand to show TLE details & history
Last TLE update: 2 days ago

TLE from 2 days ago
0 NOAA 16 DEB
1 42383U 00055SB  25285.64281097  .00088140  00000-0  12330-1 0  9990
2 42383  98.8506  56.9474 0017349 105.8785 254.4336 14.76986196497599
Epoch: 2025-10-12T15:25Z
TLE epoch observation values (Epoch: 2025-10-12T15:25:38.867Z)
Latitude
-0.00004°
Longitude
164.07845°
Altitude
645.128 km
Speed
7.534 km/s
True Right ascension
03h 47m 47s
True Declination
0° 00' 00"
Sunlit
Object was in full shadow at epoch
Visualization orbit readout
Latitude
Unknown
Longitude
Unknown
Altitude
Unknown
Speed
Unknown
Apparent Right ascension
Unknown
Apparent Declination
Unknown
Sunlit
N/A
Visualization observer readout
Local Sidereal Time
06:22:32
Azimuth
Unknown
Elevation
Unknown
Doppler factor
Unknown
Orbital elements
Apogee altitude
648.112 km
Perigee altitude
623.775 km
Semi-major axis
7,014.08 km
Eccentricity
0.00173
Inclination
98.8506°
RAAN
56.9474°
Arg. of periapsis
105.8785°
True anomaly
254.2422°
Mean anomaly
254.4336°
Eccentric anomaly
254.33789°
Mean motion
3.69477 °/min
Orbital period
97.44 mins
BSTAR
0.01233
Loading maneuver chart data...
Computing Atmospheric mass density...
Loading historical data...
Loading historical data...
Loading historical data...
Loading historical data...
Loading historical data...
Loading historical data...
Loading historical data...

Documentation

Showing up to 5 results
|